Location: Skoghall
(59.3232°N, 13.4653°E)
Time: 15:02:18
(UTC+01:00)

ISS - Pass Details

Date: 02 December 2021
Orbit: 413 x 422 km, 51.6° (Epoch: 18 January)

Event Time Altitude Azimuth Distance (km) Brightness Sun altitude
Rises 16:11:35 0° 243° (WSW) 2,384 2.6 -6.6°
Reaches altitude 10° 16:13:59 10° 228° (SW) 1,518 0.8 -6.9°
Maximum altitude 16:16:41 22° 176° (S) 977 -1.5 -7.2°
Drops below altitude 10° 16:19:24 10° 123° (ESE) 1,514 -1.2 -7.5°
Enters shadow 16:21:36 - 108° (ESE) 2,309 -0.4 -7.7°
